This demonstration page uses our WeatherBlox Daily Observations layout. Learn more.

Left ArrowRight Arrow

41.12389, -100.76542

Hourly Observations for July 22, 2022

Temp ( °F °C ) Dew Point ( °F °C ) Humidity (%) Winds ( mph kmh ) Pressure ( in mb ) Visibility ( mi km ) Precip ( " mm )
12:53 am 00:53 Clear 74 23.3 59 15 60 60 S 14 22 29.83 1010 10 16 0.00 0.00
1:53 am 01:53 Clear 73 22.8 59 15 62 62 S 7 11 29.81 1010 10 16 0.00 0.00
2:53 am 02:53 Clear 72 22.2 59 15 64 64 Calm 29.80 1009 10 16 0.00 0.00
3:53 am 03:53 Clear 71 21.7 58 14.4 63 63 ENE 5 7 29.81 1010 10 16 0.00 0.00
4:53 am 04:53 Clear 70 21.1 59 15 68 68 E 7 11 29.84 1011 10 16 0.00 0.00
5:53 am 05:53 Mostly Clear 67 19.4 59 15 76 76 Calm 29.88 1012 10 16 0.00 0.00
6:53 am 06:53 Sunny 66 18.9 61 16.1 84 84 Calm 29.87 1012 10 16 0.00 0.00
7:53 am 07:53 Sunny 72 22.2 61 16.1 68 68 Calm 29.88 1012 10 16 0.00 0.00
8:53 am 08:53 Sunny 77 25 63 17.2 62 62 SE 6 9 29.90 1013 10 16 0.00 0.00
9:53 am 09:53 Sunny 81 27.2 65 18.3 58 58 SE 6 9 29.89 1012 10 16 0.00 0.00
10:53 am 10:53 Sunny 85 29.4 65 18.3 51 51 SE 5 7 29.88 1012 10 16 0.00 0.00
11:53 am 11:53 Sunny 88 31.1 65 18.3 46 46 ESE 8 13 29.87 1011 10 16 0.00 0.00
12:53 pm 12:53 Sunny 91 32.8 67 19.4 45 45 ESE 8 13 29.85 1011 10 16 0.00 0.00
1:53 pm 13:53 Sunny 93 33.9 67 19.4 42 42 ESE 9 15 29.85 1011 10 16 0.00 0.00
2:53 pm 14:53 Sunny 95 35 66 18.9 39 39 ESE 7 11 29.83 1010 10 16 0.00 0.00
3:53 pm 15:53 Sunny 96 35.6 68 20 40 40 S 7 11 29.82 1010 10 16 0.00 0.00
4:53 pm 16:53 Sunny 98 36.7 64 17.8 33 33 ESE 5 7 29.80 1009 10 16 0.00 0.00
5:53 pm 17:53 Sunny 97 36.1 66 18.9 36 36 E 10 17 29.79 1009 10 16 0.00 0.00
6:53 pm 18:53 Sunny 95 35 66 18.9 39 39 ESE 17 28 29.78 1008 10 16 0.00 0.00
7:53 pm 19:53 Sunny 92 33.3 68 20 46 46 ESE 14 22 29.78 1009 10 16 0.00 0.00
8:53 pm 20:53 Sunny 85 29.4 68 20 57 57 E 7 11 29.79 1009 10 16 0.00 0.00
9:53 pm 21:53 Clear 79 26.1 68 20 69 69 E 8 13 29.79 1009 10 16 0.00 0.00
10:53 pm 22:53 Clear 78 25.6 67 19.4 69 69 ESE 10 17 29.81 1009 10 16 0.00 0.00
11:53 pm 23:53 Clear 76 24.4 69 20.6 79 79 E 10 17 29.81 1010 10 16 0.00 0.00

Powered by AerisWeather